Torna al catalogo

COSMOS 2322

AttivoMilitareLEO
NORAD 23704·PAYLOAD·🇷🇺 Russia

Lanciato Oct 31, 1995 da Baikonur Cosmodrome

Loading…

Prossimi Passaggi (prossime 24 ore)

TLE

AggiornatoSource: Space-Track

Epoca: Sep 14, 2026, 03:47 UTC

1 23704U 95058A   26257.15784743  .00000102  00000-0  78839-4 0  9996
2 23704  70.9845 166.2207 0008732  11.3973 348.7345 14.13825220592692

Traccia COSMOS 2322 in tempo reale con AllMySat

Download on the App Store